Hourly Data Report for October 27, 2019

CORAL HARBOUR A
NUNAVUT
Current Station Operator: NAVCAN

64°11'36.000" N
83°21'34.000" W
62.20 m
2301002
71915
YZS

Download Data

Hourly Data (October 2019)
Hourly Data Report for October 27, 2019
TIME
LST
Temp Definition
°C
Dew Point Definition
°C
Rel Hum Definition
%
Precip. Amount Definition
mm

Wind Dir Definition
10's deg

Wind Spd Definition
km/h
Visibility Definition
km
Stn Press Definition
kPa
Hmdx Definition


Wind Chill Definition


Weather Definition


00:00 -12.8 -14.3 89   34 20 24.1 101.12   -21 LegendNANA
01:00 -12.7 -14.5 86   35 23 24.1 101.11   -22 Clear
02:00 -13.4 -15.2 86   33 18 24.1 101.16   -22 LegendNANA
03:00 -13.6 -15.1 89   33 19 24.1 101.15   -22 LegendNANA
04:00 -12.9 -14.2 90   34 18 24.1 101.14   -21 Clear
05:00 -13.2 -14.7 88   34 16 24.1 101.11   -21 LegendNANA
06:00 -10.4 -11.8 89   3 12 24.1 101.12   -16 LegendNANA
07:00 -10.1 -11.4 91   3 17 24.1 101.11   -17 Mainly Clear
08:00 -9.7 -11.1 90   3 15 24.1 101.12   -16 LegendNANA
09:00 -7.3 -8.9 88   6 10 24.1 101.19   -12 LegendNANA
10:00 -6.6 -8.1 89   3 7 24.1 101.19   -10 Mostly Cloudy
11:00 -4.9 -6.7 87   5 17 24.1 101.12   -11 LegendNANA
12:00 -3.9 -6.3 83   9 23 24.1 101.08   -11 LegendNANA
13:00 -3.3 -4.8 89   7 18 24.1 101.03   -9 Mostly Cloudy
14:00 -2.7 -4.5 87   7 23 24.1 100.99   -9 LegendNANA
15:00 -2.6 -4.9 84   8 29 24.1 100.91   -10 LegendNANA
16:00 -2.6 -5.0 84   8 35 24.1 100.91   -10 Mostly Cloudy
17:00 -2.6 -4.7 86   7 36 24.1 100.85   -10 LegendNANA
18:00 -2.6 -4.6 86   7 43 24.1 100.75   -11 LegendNANA
19:00 -2.5 -4.2 88   7 43 24.1 100.81   -11 Mostly Cloudy
20:00 -2.6 -4.2 89   7 47 24.1 100.70   -11 Snow,Blowing Snow
21:00 -2.4 -4.0 89   6 52 19.3 100.63   -12 Snow,Blowing Snow
22:00 -2.4 -3.8 90   7 49 19.3 100.53   -11 Snow,Blowing Snow
23:00                      

Notes on Data Quality.

Legend

  • E = Estimated
  • M = Missing
  • NA = Not Available*
  • [empty] = Indicates an unobserved value
Date modified: